Regional Weather Roundup
Issued by NWS Kansas City/Pleasant Hill, MO

Home | Current Version | Previous Version | Graphics & Text | Print | Product List | Glossary Off
Versions: 1 2 3 4 5 6 7 8 9 10 11 12 13 14 15 16 17 18 19 20 21 22 23 24 25 26 27 28 29 30 31 32 33 34 35 36 37 38 39 40 41 42 43 44 45 46 47 48 49 50

000
ASUS43 KEAX 170504
RWREAX

WEATHER ROUNDUP FOR EASTERN KANSAS AND NORTHWEST MISSOURI
NATIONAL WEATHER SERVICE KANSAS CITY/PLEASANT HILL MO
1200 AM CDT THU APR 17 2014

KSZ040-057-103>105-MOZ028-029-037-043-170600-
...KANSAS CITY METROPOLITAN AREA...

CITY           SKY/WX    TMP DP  RH WIND       PRES   REMARKS
K.C. INTL      MOCLDY    44  32  62 NW14      30.07R
K.C. DOWNTOWN  PTCLDY    49  33  54 NW12G17   30.06R
LEES SUMMIT    CLEAR     52  36  54 NW15      30.05R
OLATHE - IXD   CLEAR     47  34  60 N15       30.07R
OLATHE - OJC   CLEAR     48  33  56 NW14G21   30.05R
LAWRENCE       CLOUDY    47  34  60 N21       30.08R

$$

MOZ001>008-011>017-020>025-030>033-038>040-044>046-053-054-170600-
...NORTHERN AND CENTRAL MISSOURI...

CITY           SKY/WX    TMP DP  RH WIND       PRES   REMARKS
ST. JOSEPH     CLOUDY    42  32  67 NW12      30.10R
MOSBY          FAIR      48  34  57 NW14      30.05R
WHITEMAN AFB   CLEAR     48  32  52 SW7       30.03R
CLINTON        CLEAR     54  34  47 S9        30.03R
SEDALIA        CLEAR     52  30  43 S13       30.03R
WARSAW         NOT AVBL
MARSHALL         N/A     55  36  47 S13       29.99R
CHILLICOTHE      N/A     52  36  54 W9        30.03R
MOBERLY        CLEAR     52  27  37 S10       30.03R
KIRKSVILLE     PTCLDY    48  30  49 S7        29.99R

$$

MOZ041-047>049-056>058-063>065-088>090-097-170600-
...EASTERN AND SOUTHERN MISSOURI...

CITY           SKY/WX    TMP DP  RH WIND       PRES   REMARKS
ST. LOUIS INTL PTCLDY    50  27  40 S10       30.14S
SPIRIT OF STL  CLEAR     48  26  42 VRB5      30.12S
COLUMBIA       PTCLDY    50  29  44 S16       30.05R
JEFFERSON CITY PTCLDY    50  28  42 SE9       30.07R
MEXICO         MOCLDY    46  32  57 S14       30.04R
HANNIBAL       PTCLDY    50  19  29 S12G17    30.05R
ROLLA          CLEAR     46  29  51 S13       30.08S
LEBANON        CLEAR     46  28  49 S10       30.08S
OSAGE BEACH    CLEAR     48  27  43 S9G16     30.08R
SPRINGFIELD    CLEAR     49  30  48 S14       30.07R
BRANSON        CLOUDY    46  30  53 SE8       30.13R
NEVADA         CLEAR     50  32  50 S12       30.04R
JOPLIN         CLEAR     52  31  44 S15       30.05R
WEST PLAINS    CLEAR     40  29  64 S5        30.15R
MALDEN         CLEAR     45  39  81 CALM      30.16S

$$

IAZ060-094-KSZ022-034>040-054-083-096-NEZ052-066-093-170600-
...KANSAS...SOUTHEAST NEBRASKA AND IOWA...

CITY           SKY/WX    TMP DP  RH WIND       PRES   REMARKS
TOPEKA         CLOUDY    46  33  60 N14       30.12R
MANHATTAN      PTCLDY    42  30  62 N12       30.12R
EMPORIA        PTCLDY    46  33  60 N13       30.09R
CHANUTE        PTCLDY    51  34  52 SW8       30.04R
WICHITA        PTCLDY    51  34  52 N17G26    30.08R
OMAHA          CLOUDY    36  28  73 NW22G28   30.10R WCI  25
LINCOLN        CLOUDY    38  26  62 N22       30.15R WCI  27
FALLS CITY     PTCLDY    39  30  70 NW16      30.09R WCI  30
LAMONI         CLOUDY    40  33  76 NW23      30.02R WCI  30
DES MOINES     CLOUDY    44  37  76 NW21G35   29.98R

$$




USA.gov is the U.S. government's official web portal to all federal, state and local government web resources and services.